Preview of NWS' New Version of Forecast
This preview is not operational and should not be used for support decisions.

Regional Weather Roundup (RWR)

Issued by National Weather Service (NWS)

                            
000
ASUS43 KTOP 211508
RWRKS 

WEATHER ROUNDUP FOR KANSAS
NATIONAL WEATHER SERVICE GOODLAND KS
1000 AM CDT SUN APR 21 2019

NOTE:  "FAIR" INDICATES FEW OR NO CLOUDS BELOW 12,000 FEET WITH NO
SIGNIFICANT WEATHER AND/OR OBSTRUCTIONS TO VISIBILITY.

KSZ001>006-013>018-027>032-041>047-211600-
NORTHWEST KANSAS
  
CITY           SKY/WX    TMP DP  RH WIND       PRES   REMARKS
GOODLAND       SUNNY     65  45  48 NW18      29.65S                  
HAYS           SUNNY     68  50  52 S20       29.63F                  
HILL CITY      SUNNY     70  44  39 SW8       29.59F                  
RUSSELL        MOSUNNY   68  50  52 S24G33    29.63S                  
$$

KSZ061>065-074>080-084>089-211600-
SOUTHWEST KANSAS
  
CITY           SKY/WX    TMP DP  RH WIND       PRES   REMARKS
DODGE CITY     MOSUNNY   68  45  43 S15       29.68F                  
ELKHART        SUNNY     77  37  23 W12       29.76S                  
GARDEN CITY    SUNNY     72  34  24 W21G31    29.67S                  
GREAT BEND     SUNNY     67  52  58 S23G31    29.67S                  
LIBERAL        MOSUNNY   76  40  27 W13       29.73R                  
PRATT          SUNNY     67  52  57 S23       29.71R                  
$$

KSZ066>073-081>083-090>101-211600-
SOUTHEAST KANSAS
  
CITY           SKY/WX    TMP DP  RH WIND       PRES   REMARKS
CHANUTE        SUNNY     71  52  50 S17G26    29.89F                  
COFFEYVILLE    SUNNY     71  51  49 S18G31    29.89S                  
HUTCHINSON     CLOUDY    66  52  60 S22G33    29.71F                  
MEDICINE LODGE   N/A     66  53  63 S18G26    29.72S                  
NEWTON         SUNNY     69  53  56 S29G35    29.75F                  
PARSONS        SUNNY     71  52  50 S10G24    29.90F                  
WICHITA INTL   PTSUNNY   69  53  56 S22G31    29.75F                  
WICHITA JABRA  MOSUNNY   68  52  56 S23G40    29.75F                  
WICHITA MCCONL PTSUNNY   68  52  56 SE25G33   29.76F                  
WINFIELD       CLOUDY    71  54  54 S28G39    29.80S                  
$$

KSZ007>012-019>026-033>040-048>060-102>105-211600-
NORTHEAST KANSAS
  
CITY           SKY/WX    TMP DP  RH WIND       PRES   REMARKS
CONCORDIA      CLOUDY    70  50  49 S24G36    29.69S                  
EMPORIA        MOSUNNY   69  52  54 S30G46    29.78F                  
LAWRENCE       PTSUNNY   72  51  47 S24G35    29.79F                  
MANHATTAN      PTSUNNY   71  50  47 S21G37    29.72F                  
MARYSVILLE     CLOUDY    66  50  55 S15G26    29.73R                  
OLATHE IND     MOSUNNY   69  52  54 S20G31    29.83F                  
OLATHE EXE     MOSUNNY   69  50  50 S17G33    29.84F                  
SALINA         MOSUNNY   66  51  58 S23G37    29.70S                  
TOPEKA BILLARD MOSUNNY   71  50  47 S24G37    29.74F                  
TOPEKA FORBES  MOSUNNY   71  51  49 S21G31    29.76F                  
$$